Home > Time Zones > World Clock > Weather > Norway > Odda > Past weeks

Flag for Norway Weather past 2 weeks in Odda, Norway

Now
36 °F

Chilly.


Feels Like: 30 °F
Forecast: 40 / 54 °F
Wind: 8 mph from North

Location: Midtlaeger

Current Time: Sep 22, 2014 at 3:08:38 AM

Latest Report: Sep 22, 2014 at 2:00 AM


Visibility: N/A

Pressure: 30.01 "Hg

Humidity: 58%

Dew point: 23 °F

Location of OddaLocation

Historic Weather in Odda — Graph

°F

Odda temperature yesterday

Maximum temperature yesterday: 46 °F (at 3:00 PM)
Minimum temperature yesterday: 37 °F (at 11:00 PM)
Average temperature yesterday: 42 °F

Past Weeks' High & Low Weather Summary

 TemperatureHumidityPressure
High59 °F (Sep 13, 2:00 PM)91% (Sep 20, 11:00 PM)30.47 "Hg (Sep 20, 11:00 PM)
Low37 °F (Sep 22, 12:00 AM)39% (Sep 15, 7:00 PM)29.80 "Hg (Sep 7, 7:00 AM)
Average48 °F73%30.14 "Hg
* Reported Sep 7 1:00 AM — Sep 22 1:00 AM, Odda, Weather by CustomWeather, © 2014

Note: Actual official high and low records may vary slightly from our data, if they occured in-between our weather recording intervals... More about our weather records

Advertising

Odda weather history for previous 24 hours

 ConditionsComfort  
Time TempWeatherWind HumidityBarometerVisibility
1:00 AM
Sep 22
37 °FChilly.5 mph58%29.99 "HgN/A
12:00 AM37 °FChilly.9 mph62%29.99 "HgN/A
11:00 PM
Sep 21
37 °FChilly.7 mph63%29.99 "HgN/A
10:00 PM38 °FChilly.7 mph63%29.97 "HgN/A
9:00 PM38 °FChilly.9 mph63%29.97 "HgN/A
8:00 PM40 °FChilly.10 mph63%29.93 "HgN/A
7:00 PM41 °FQuite cool.8 mph54%29.93 "HgN/A
6:00 PM42 °FQuite cool.10 mph61%29.91 "HgN/A
5:00 PM44 °FQuite cool.10 mph56%29.90 "HgN/A
4:00 PM45 °FCool.12 mph58%29.89 "HgN/A
3:00 PM46 °FCool.7 mph59%29.90 "HgN/A
2:00 PM44 °FQuite cool.9 mph65%29.92 "HgN/A
1:00 PM45 °FQuite cool.9 mph67%29.90 "HgN/A
12:00 PM44 °FQuite cool.7 mph67%29.90 "HgN/A
11:00 AM44 °FQuite cool.7 mph68%29.90 "HgN/A
10:00 AM44 °FQuite cool.6 mph68%29.89 "HgN/A
9:00 AM43 °FQuite cool.6 mph72%29.89 "HgN/A
8:00 AM43 °FQuite cool.7 mph73%29.88 "HgN/A
7:00 AM42 °FQuite cool.6 mph75%29.88 "HgN/A
6:00 AM41 °FQuite cool.5 mph83%29.88 "HgN/A
5:00 AM41 °FQuite cool.5 mph86%29.90 "HgN/A
4:00 AM41 °FQuite cool.5 mph81%29.90 "HgN/A
3:00 AM42 °FQuite cool.6 mph74%29.90 "HgN/A
Weather by CustomWeather, © 2014

See weather overviewHow to use our weather pages